This demonstration page uses our WeatherBlox Daily Observations layout. Learn more.

Left ArrowRight Arrow

39.29038, -76.61219

Hourly Observations for November 2, 2018

Temp ( °F °C ) Dew Point ( °F °C ) Humidity (%) Winds ( mph kmh ) Pressure ( in mb ) Visibility ( mi km ) Precip ( " mm )
12:54 am 00:54 undefined 70 21.1 62 16.7 76 76 undefined N/A 29.71 1006 N/A 0.00 0.00
1:54 am 01:54 undefined 70 21.1 62 16.7 76 76 undefined N/A 29.72 1007 N/A 0.00 0.00
2:54 am 02:54 undefined 70 21.1 61 16.1 73 73 undefined N/A 29.69 1005 N/A 0.00 0.00
3:54 am 03:54 undefined 71 21.7 61 16.1 71 71 undefined N/A 29.69 1005 N/A 0.00 0.00
4:54 am 04:54 undefined 67 19.4 61 16.1 81 81 undefined N/A 29.67 1005 N/A 0.00 0.00
5:54 am 05:54 undefined 70 21.1 63 17.2 79 79 undefined N/A 29.66 1004 N/A 0.00 0.00
6:54 am 06:54 undefined 70 21.1 63 17.2 79 79 undefined N/A 29.67 1005 N/A 0.00 0.00
7:54 am 07:54 undefined 70 21.1 62 16.7 76 76 undefined N/A 29.68 1005 N/A 0.00 0.00
8:54 am 08:54 undefined 70 21.1 62 16.7 76 76 undefined N/A 29.68 1005 N/A 0.00 0.00
9:54 am 09:54 undefined 71 21.7 63 17.2 76 76 undefined N/A 29.71 1006 N/A 0.00 0.00
10:54 am 10:54 undefined 72 22.2 62 16.7 71 71 undefined N/A 29.72 1006 N/A 0.00 0.00
11:54 am 11:54 undefined 72 22.2 62 16.7 71 71 undefined N/A 29.72 1006 N/A 0.00 0.00
12:54 pm 12:54 undefined 74 23.3 62 16.7 67 67 undefined N/A 29.71 1006 N/A 0.00 0.00
1:54 pm 13:54 undefined 74 23.3 61 16.1 64 64 undefined N/A 29.68 1005 N/A 0.00 0.00
2:54 pm 14:54 undefined 74 23.3 61 16.1 64 64 undefined N/A 29.66 1005 N/A 0.00 0.00
3:54 pm 15:54 undefined 73 22.8 61 16.1 66 66 undefined N/A 29.65 1004 N/A 0.00 0.00
4:54 pm 16:54 undefined 69 20.6 61 16.1 76 76 undefined N/A 29.65 1004 N/A 0.00 0.00
5:54 pm 17:54 undefined 70 21.1 62 16.7 76 76 undefined N/A 29.63 1004 N/A 0.02 0.51
6:54 pm 18:54 undefined 67 19.4 62 16.7 84 84 undefined N/A 29.64 1004 N/A 0.03 0.76
7:54 pm 19:54 undefined 66 18.9 63 17.2 90 90 undefined N/A 29.62 1003 N/A 0.15 3.81
8:54 pm 20:54 undefined 67 19.4 64 17.8 91 91 undefined N/A 29.58 1002 N/A 0.00 0.00
9:54 pm 21:54 undefined 60 15.6 57 13.9 90 90 undefined N/A 29.58 1002 N/A 0.26 6.60
10:54 pm 22:54 undefined 57 13.9 53 11.7 87 87 undefined N/A 29.58 1002 N/A 0.16 4.06
11:54 pm 23:54 undefined 58 14.4 53 11.7 84 84 undefined N/A 29.65 1004 N/A 0.11 2.79

Powered by AerisWeather